Louisville, KY

5:12 AM EDT on May 23, 2017 (GMT -0400)
Louisville International-Standiford

Weather History for KSDF - February, 2013

Change the Weather History Date:

Thursday, February 28, 2013

  Actual Average Record
Temperature  
Mean Temperature 36 °F 42 °F  
Max Temperature 38 °F 52 °F 77 °F (1918)
Min Temperature 34 °F 33 °F 9 °F (1993)
Degree Days  
Heating Degree Days 29 22  
Month to date heating degree days 760 731  
Since 1 July heating degree days 3082 3241  
Cooling Degree Days 0 0  
Month to date cooling degree days 0 0  
Year to date cooling degree days 0 0  
Moisture  
Dew Point 31 °F    
Average Humidity 86    
Maximum Humidity 89    
Minimum Humidity 82    
Precipitation  
Precipitation T in 0.11 in 1.71 in (1987)
Month to date precipitation 1.92 3.18  
Year to date precipitation 7.02 6.42  
Snow  
Snow T in 0.10 in 7.20 in (1917)
Month to date snowfall 3.2 4.5  
Since 1 July snowfall 8.1 11.0  
Snow Depth 0.00 in    
Sea Level Pressure  
Sea Level Pressure 29.89 in    
Wind  
Wind Speed 12 mph (West)    
Max Wind Speed 20 mph    
Max Gust Speed 25 mph    
Visibility 8 miles    
Events Snow    
T = Trace of Precipitation, MM = Missing Value Source: NWS Daily Summary

Daily Weather History Graph

Daily Weather History Graph

Search for Another Location

Airport or City:

Trip Planner

Search our weather history database for the weather conditions in past years. The results will help you decide how hot, cold, wet, or windy it might be!

Date:

Astronomy

Feb. 28, 2013 Rise Set
Actual Time 7:15 AM EST 6:35 PM EST
Civil Twilight 6:49 AM EST 7:02 PM EST
Nautical Twilight 6:18 AM EST 7:32 PM EST
Astronomical Twilight 5:48 AM EST 8:03 PM EST
Moon 9:57 PM EST (2/28) 8:28 AM EST (2/28)
Length of Visible Light 12h 12m
Length of Day
11h 19m
Waning Gibbous, 91% of the Moon is Illuminated
Feb 28
Waning Gibbous
Mar 4
Last Quarter
Mar 11
New
Mar 19
First Quarter
Mar 27
Full

Hourly Weather History & Observations

Time (EST) Temp. Windchill Dew Point Humidity Pressure Visibility Wind Dir Wind Speed Gust Speed Precip Events Conditions
12:43 AM 35.6 °F 27.1 °F 30.2 °F 81% 29.79 in 8.0 mi WSW 12.7 mph 21.9 mph 0.00 in   Overcast
12:56 AM 35.6 °F 27.1 °F 30.2 °F 81% 29.79 in 7.0 mi WSW 12.7 mph - N/A   Overcast
1:05 AM 33.8 °F 27.0 °F 30.2 °F 87% 29.79 in 6.0 mi WSW 8.1 mph - 0.00 in Snow Light Snow
1:56 AM 35.1 °F 25.9 °F 30.0 °F 82% 29.80 in 8.0 mi West 13.8 mph - 0.00 in   Overcast
2:35 AM 33.8 °F 25.3 °F 30.2 °F 87% 29.79 in 8.0 mi WSW 11.5 mph - N/A   Overcast
2:56 AM 34.0 °F 26.0 °F 30.0 °F 85% 29.80 in 8.0 mi WSW 10.4 mph 19.6 mph N/A   Overcast
3:56 AM 34.0 °F 24.2 °F 28.9 °F 82% 29.80 in 9.0 mi West 15.0 mph - N/A   Overcast
4:18 AM 33.8 °F 25.3 °F 28.4 °F 81% 29.80 in 9.0 mi West 11.5 mph - N/A   Overcast
4:29 AM 33.8 °F 23.9 °F 28.4 °F 81% 29.80 in 9.0 mi West 15.0 mph - N/A   Overcast
4:56 AM 34.0 °F 24.6 °F 28.9 °F 82% 29.81 in 9.0 mi West 13.8 mph - N/A   Overcast
5:56 AM 34.0 °F 24.6 °F 28.9 °F 82% 29.83 in 9.0 mi West 13.8 mph - N/A   Overcast
6:56 AM 34.0 °F 25.0 °F 28.9 °F 82% 29.84 in 8.0 mi WSW 12.7 mph - N/A   Overcast
7:07 AM 33.8 °F 24.3 °F 28.4 °F 81% 29.83 in 8.0 mi West 13.8 mph 24.2 mph N/A   Overcast
7:56 AM 34.0 °F 24.2 °F 30.0 °F 85% 29.85 in 6.0 mi West 15.0 mph 23.0 mph N/A   Overcast
8:56 AM 34.0 °F 24.6 °F 30.0 °F 85% 29.88 in 5.0 mi West 13.8 mph - 0.00 in Snow Light Snow
9:56 AM 34.0 °F 24.2 °F 30.9 °F 89% 29.88 in 4.0 mi West 15.0 mph - 0.00 in Snow Light Snow
10:56 AM 35.1 °F 26.9 °F 30.9 °F 85% 29.90 in 6.0 mi West 11.5 mph - 0.00 in Snow Light Snow
11:56 AM 35.1 °F 26.4 °F 32.0 °F 89% 29.92 in 6.0 mi West 12.7 mph - 0.00 in Snow Light Snow
12:56 PM 36.0 °F 27.1 °F 32.0 °F 86% 29.92 in 7.0 mi West 13.8 mph - 0.00 in   Overcast
1:56 PM 37.0 °F 27.7 °F 32.0 °F 82% 29.91 in 7.0 mi West 16.1 mph - 0.00 in   Light Drizzle
2:56 PM 37.9 °F 30.0 °F 33.1 °F 83% 29.92 in 7.0 mi West 12.7 mph - 0.00 in   Overcast
3:56 PM 37.0 °F 29.8 °F 32.0 °F 82% 29.94 in 8.0 mi West 10.4 mph - N/A   Overcast
4:56 PM 37.0 °F 29.8 °F 32.0 °F 82% 29.96 in 8.0 mi WNW 10.4 mph - N/A   Overcast
5:47 PM 37.4 °F 29.3 °F 32.0 °F 81% 29.96 in 8.0 mi West 12.7 mph - N/A   Overcast
5:56 PM 37.9 °F 30.9 °F 32.0 °F 79% 29.98 in 8.0 mi West 10.4 mph - N/A   Overcast
6:56 PM 37.9 °F 30.5 °F 32.0 °F 79% 29.99 in 10.0 mi WNW 11.5 mph - N/A   Overcast
7:56 PM 37.4 °F 29.8 °F 33.8 °F 87% 29.98 in 10.0 mi West 11.5 mph - N/A   Overcast
8:56 PM 37.0 °F 29.8 °F 33.1 °F 86% 29.99 in 10.0 mi West 10.4 mph - N/A   Overcast
9:56 PM 37.4 °F 31.4 °F 33.8 °F 87% 29.99 in 9.0 mi West 8.1 mph - N/A   Overcast
10:56 PM 37.0 °F 31.6 °F 34.0 °F 89% 30.01 in 9.0 mi West 6.9 mph - 0.00 in   Light Drizzle
11:56 PM 37.0 °F 32.4 °F 34.0 °F 89% 30.00 in 8.0 mi WNW 5.8 mph - 0.00 in   Light Drizzle